Location: Stoke Bliss
(52.2667°N, 2.5167°W)
Time: 13:17:08
(UTC+00:00)

Envisat - Pass Details

Date: 10 December 2021
Orbit: 764 x 766 km, 98.2° (Epoch: 28 January)

Event Time Altitude Azimuth Distance (km) Brightness Sun altitude
Rises 03:28:02 0° 31° (NNE) 3,246 6.8 -41.3°
Reaches altitude 10° 03:32:47 10° 71° (ENE) 2,311 6.1 -40.6°
Maximum altitude 03:33:41 10° 82° (E) 2,279 6.1 -40.5°
Drops below altitude 10° 03:34:36 10° 92° (E) 2,307 6.1 -40.4°
Sets 03:39:18 0° 132° (SE) 3,224 6.6 -39.7°
